Weather History for Cleveland, OH

Change the Weather History Date:

Tuesday, October 30, 2012

  Actual Average Record
Temperature  
Mean Temperature 45 °F 50 °F  
Max Temperature 47 °F 58 °F 79 °F (1950)
Min Temperature 42 °F 42 °F 23 °F (1980)
Degree Days  
Heating Degree Days 20 15  
Month to date heating degree days 349 340  
Since 1 July heating degree days 488 443  
Cooling Degree Days 0 0  
Month to date cooling degree days 10 10  
Year to date cooling degree days 1096 814  
Moisture  
Dew Point 41 °F    
Average Humidity 90    
Maximum Humidity 93    
Minimum Humidity 86    
Precipitation  
Precipitation 1.94 in 0.10 in 1.94 in (2012)
Month to date precipitation 9.42 2.97  
Year to date precipitation 38.95 32.32  
Snow  
Snow 0.00 in 0.10 in - ()
Month to date snowfall 0.0 0.2  
Since 1 July snowfall 0.0 0.2  
Since 1 September snowfall 0.0 0.2  
Snow Depth 0.00 in    
Sea Level Pressure  
Sea Level Pressure 29.32 in    
Wind  
Wind Speed 25 mph (NNW)    
Max Wind Speed 47 mph    
Max Gust Speed 61 mph    
Visibility 5 miles    
Events Rain    
T = Trace of Precipitation, MM = Missing Value Source: NWS Daily Summary

Daily Weather History Graph

Daily Weather History Graph

Search for Another Location

Airport:

Trip Planner

Search our weather history database for the weather conditions in past years. The results will help you decide how hot, cold, wet, or windy it might be!

Date:

Astronomy

Oct. 30, 2012 Rise Set
Actual Time 7:57 AM EDT 6:24 PM EDT
Civil Twilight 7:28 AM EDT 6:52 PM EDT
Nautical Twilight 6:55 AM EDT 7:25 PM EDT
Astronomical Twilight 6:23 AM EDT 7:57 PM EDT
Moon 6:52 PM EDT (10/30) 8:43 AM EDT (10/30)
Length of Visible Light 11h 24m
Length of Day
10h 27m
Full, 99% of the Moon is Illuminated
Oct 30
Full
Nov 6
Last Quarter
Nov 13
New
Nov 20
First Quarter
Nov 28
Full

Hourly Weather History & Observations

Time (EDT) Temp. Windchill Dew Point Humidity Pressure Visibility Wind Dir Wind Speed Gust Speed Precip Events Conditions
12:51 AM 43.0 °F 31.7 °F 39.0 °F 86% 29.42 in 7.0 mi North 35.7 mph 57.5 mph 0.08 in Rain Light Rain
12:57 AM 42.8 °F 31.3 °F 39.2 °F 87% 29.40 in 8.0 mi North 36.8 mph 55.2 mph 0.02 in Rain Light Rain
1:08 AM 42.8 °F 31.3 °F 39.2 °F 87% 29.39 in 10.0 mi North 36.8 mph 56.4 mph 0.02 in Rain Light Rain
1:26 AM 42.8 °F 30.8 °F 39.2 °F 87% 29.37 in 5.0 mi North 40.3 mph 57.5 mph 0.04 in Rain Light Rain
1:51 AM 42.1 °F 30.1 °F 39.0 °F 89% 29.37 in 3.0 mi NNW 38.0 mph 58.7 mph 0.09 in Rain Light Rain
2:08 AM 42.8 °F 30.7 °F 39.2 °F 87% 29.34 in 3.0 mi NNW 41.4 mph 58.7 mph 0.04 in Rain Light Rain
2:15 AM 42.8 °F 31.4 °F 39.2 °F 87% 29.34 in 4.0 mi North 35.7 mph 58.7 mph 0.04 in Rain Light Rain
2:51 AM 42.8 °F 31.4 °F 39.2 °F 87% 29.34 in 4.0 mi North 35.7 mph 50.6 mph N/A Rain Rain
3:10 AM 42.8 °F 32.1 °F 39.2 °F 87% 29.33 in 2.5 mi NNW 31.1 mph 49.5 mph 0.09 in Rain Rain
3:19 AM 42.8 °F 32.9 °F 39.2 °F 87% 29.32 in 3.0 mi NNW 26.5 mph 52.9 mph 0.10 in Rain Rain
3:27 AM 42.8 °F 31.1 °F 39.2 °F 87% 29.32 in 2.5 mi NNW 38.0 mph 51.8 mph 0.11 in Rain Rain
3:40 AM 42.8 °F 32.1 °F 39.2 °F 87% 29.32 in 3.0 mi North 31.1 mph 47.2 mph 0.14 in Rain Rain
3:51 AM 43.0 °F 33.1 °F 39.9 °F 89% 29.33 in 3.0 mi NNW 26.5 mph 47.2 mph 0.17 in Rain Rain
3:58 AM 42.8 °F 32.1 °F 39.2 °F 87% 29.31 in 2.5 mi North 31.1 mph 46.0 mph N/A Rain Rain
4:06 AM 42.8 °F 31.4 °F 39.2 °F 87% 29.31 in 3.0 mi NNW 35.7 mph 52.9 mph 0.03 in Rain Rain
4:12 AM 42.8 °F 31.6 °F 39.2 °F 87% 29.31 in 2.5 mi North 34.5 mph 52.9 mph 0.03 in Rain Rain
4:20 AM 42.8 °F 32.5 °F 39.2 °F 87% 29.31 in 4.0 mi North 28.8 mph 50.6 mph 0.06 in Rain Rain
4:31 AM 42.8 °F 32.1 °F 39.2 °F 87% 29.30 in 5.0 mi North 31.1 mph 46.0 mph 0.11 in Rain Rain
4:51 AM 43.0 °F 32.2 °F 39.9 °F 89% 29.31 in 5.0 mi NNW 32.2 mph 47.2 mph 0.15 in Rain Light Rain
5:13 AM 42.8 °F 32.7 °F 39.2 °F 87% 29.29 in 4.0 mi NNW 27.6 mph 50.6 mph 0.07 in Rain Rain
5:35 AM 42.8 °F 32.1 °F 39.2 °F 87% 29.29 in 3.0 mi NNW 31.1 mph 48.3 mph 0.10 in Rain Light Rain
5:51 AM 42.8 °F 31.8 °F 39.2 °F 87% 29.29 in 3.0 mi North 33.4 mph 51.8 mph N/A Rain Light Rain
6:34 AM 42.8 °F 31.9 °F 39.2 °F 87% 29.28 in 3.0 mi NNW 32.2 mph 48.3 mph 0.10 in Rain Light Rain
6:37 AM 42.8 °F 31.9 °F 39.2 °F 87% 29.28 in 2.5 mi NNW 32.2 mph 44.9 mph 0.12 in Rain Light Rain
6:42 AM 42.8 °F 31.6 °F 39.2 °F 87% 29.28 in 2.5 mi North 34.5 mph 44.9 mph N/A Rain Rain
6:46 AM 42.8 °F 31.8 °F 39.2 °F 87% 29.28 in 3.0 mi NNW 33.4 mph 44.9 mph 0.12 in Rain Light Rain
6:51 AM 42.8 °F 31.8 °F 39.2 °F 87% 29.28 in 3.0 mi North 33.4 mph 46.0 mph N/A Rain Light Rain
7:13 AM 42.8 °F 32.9 °F 41.0 °F 93% 29.27 in 4.0 mi NNW 26.5 mph 35.7 mph 0.08 in Rain Heavy Rain
7:51 AM 43.0 °F 32.7 °F 39.9 °F 89% 29.28 in 5.0 mi North 28.8 mph 47.2 mph 0.18 in Rain Heavy Rain
7:58 AM 42.8 °F 31.9 °F 39.2 °F 87% 29.26 in 6.0 mi North 32.2 mph 44.9 mph 0.02 in Rain Rain
8:37 AM 44.6 °F 34.7 °F 42.8 °F 93% 29.25 in 6.0 mi North 29.9 mph 42.6 mph 0.11 in Rain Heavy Rain
8:51 AM 44.6 °F 34.7 °F 41.0 °F 87% 29.25 in 5.0 mi North 29.9 mph 44.9 mph N/A Rain Rain
9:51 AM 44.1 °F 34.0 °F 42.1 °F 93% 29.26 in 2.5 mi North 29.9 mph 43.7 mph 0.08 in   Overcast
10:04 AM 44.6 °F 36.4 °F 42.8 °F 93% 29.25 in 5.0 mi North 20.7 mph 38.0 mph 0.01 in Rain Light Rain
10:51 AM 44.6 °F 34.7 °F 42.8 °F 93% 29.25 in 9.0 mi North 29.9 mph 39.1 mph N/A Rain Light Rain
11:51 AM 45.0 °F 35.8 °F 42.1 °F 90% 29.26 in 10.0 mi North 26.5 mph 39.1 mph 0.00 in Rain Light Rain
12:51 PM 46.0 °F 37.4 °F 43.0 °F 89% 29.27 in 10.0 mi North 25.3 mph 38.0 mph 0.01 in Rain Light Rain
1:51 PM 46.0 °F 37.6 °F 44.1 °F 93% 29.28 in 9.0 mi North 24.2 mph 33.4 mph 0.06 in Rain Light Rain
2:51 PM 46.4 °F 39.0 °F 44.6 °F 93% 29.27 in 5.0 mi North 19.6 mph 31.1 mph N/A Rain Rain
3:51 PM 46.9 °F - 44.1 °F 90% 29.29 in 10.0 mi North 20.7 mph 34.5 mph 0.04 in Rain Light Rain
4:51 PM 46.9 °F - 44.1 °F 90% 29.32 in 10.0 mi NNW 20.7 mph 29.9 mph 0.03 in Rain Light Rain
5:51 PM 46.9 °F - 44.1 °F 90% 29.34 in 10.0 mi North 18.4 mph 34.5 mph 0.01 in Rain Light Rain
6:51 PM 46.0 °F 37.6 °F 44.1 °F 93% 29.37 in 9.0 mi NNW 24.2 mph 31.1 mph 0.02 in Rain Light Rain
7:51 PM 46.0 °F 37.8 °F 44.1 °F 93% 29.39 in 8.0 mi NNW 23.0 mph 33.4 mph 0.03 in Rain Light Rain
8:51 PM 46.4 °F 39.5 °F 44.6 °F 93% 29.39 in 6.0 mi NNW 17.3 mph 25.3 mph N/A Rain Light Rain
9:43 PM 46.4 °F 39.0 °F 44.6 °F 93% 29.40 in 2.5 mi NNW 19.6 mph 25.3 mph 0.03 in Rain Rain
9:51 PM 46.0 °F 38.5 °F 44.1 °F 93% 29.41 in 2.5 mi NW 19.6 mph 26.5 mph 0.05 in Rain Light Rain
10:10 PM 46.4 °F 39.0 °F 44.6 °F 93% 29.40 in 3.0 mi NW 19.6 mph 27.6 mph 0.04 in Rain Light Rain
10:51 PM 46.0 °F 38.8 °F 44.1 °F 93% 29.42 in 5.0 mi NW 18.4 mph 26.5 mph 0.10 in Rain Light Rain
11:51 PM 44.6 °F 38.1 °F 42.8 °F 93% 29.41 in 7.0 mi NW 13.8 mph 25.3 mph N/A Rain Light Rain